sat.trackr.live / text

‹ back to catalog

STARLINK-1573

NORAD 46061 · 2020-055AL

PAYLOAD ACTIVE UNKNOWN

§ Identity

Operator
Country
US
Launch date
2020-08-07
Launch site
AFETR
Launch vehicle
Mass (kg)
RCS (m²)

Purposes: comms

External: N2YO · Heavens-Above · Gunter

§ Orbital elements

Epoch: 2026-09-19T14:09:34.267680Z

Period
94.01 min
Inclination
53.1607°
Eccentricity
0.0001925
Mean motion
15.31701306 rev/d
Perigee alt
469.4 km
Apogee alt
472.1 km
Semi-major
6,848.9 km
B*
2.3073e-5
RAAN
291.5193°
Arg perigee
58.3765°
Mean anomaly
301.7424°
Rev number
33,878

§ Raw data

STARLINK-15731 46061U 20055AL  26262.58997995  .00000350  00000+0  23073-4 0  99942 46061  53.1607 291.5193 0001925  58.3765 301.7424 15.31701306338789

JSON: /api/v1/satellites/46061 · /tle

For live sub-satellite position, see the globe view (requires WebGL).

§ Visibility from observer

Set your observer location to see the next 7 days of passes ≥ 10°. The values pass through the URL so the page stays shareable.

No JS? Fill the form by hand. The geolocation button needs JavaScript.